Temp
3 3 4 4 4 4 4 4 4 3 3 3 5 6 7 7 7 7 7 8 11 10 9 10 10 10 11 12 12 13 9 9 12 12 14 16 16 17 18 18 19 20 20 20 21
4 3 3 3 3 4 4 4 3 3 3 3 4 6 7 7 7 6 9 10 10 10 9 9 10 10 10 12 12 11 8 10 12 12 14 15 16 16 17 16 18 19 18 19 20
3 2 3 3 2 4 3 3 4 4 3 3 3 4 7 6 6 7 11 11 11 9 9 10 10 10 10 11 11 10 9 12 13 14 15 14 15 16 16 16 17 17 16 17 17
3 2 2 2 2 3 3 3 3 3 3 3 3 3 5 6 8 9 10 12 11 9 9 9 10 10 9 9 11 11 12 12 14 14 14 14 15 15 16 16 17 18 17 16 15
2 2 2 2 1 2 2 2 2 3 2 2 3 4 5 6 8 9 9 9 10 9 9 10 9 10 10 10 11 11 12 13 14 14 14 14 14 13 14 16 17 17 17 17 17
2 2 1 2 1 2 2 2 2 2 2 2 3 4 5 6 8 9 9 9 10 9 9 9 10 11 11 10 11 11 12 13 13 13 13 13 13 14 14 16 16 17 17 17 17
2 2 1 2 2 2 2 2 2 2 3 3 3 3 4 6 7 8 9 9 10 9 9 9 10 11 11 10 12 12 11 11 11 13 12 13 11 10 15 15 15 16 16 17 17
2 2 2 1 1 2 2 2 2 2 3 3 3 3 4 7 7 7 8 9 9 9 10 10 10 11 11 11 11 10 11 10 12 11 13 14 11 13 15 15 15 15 16 16 17
2 2 1 1 1 2 2 2 2 3 2 3 3 3 5 6 8 8 8 9 9 9 9 10 10 10 11 9 9 9 8 9 11 11 12 11 10 13 14 13 13 14 15 15 16
1 1 1 1 1 2 2 2 3 3 3 3 3 3 5 6 7 8 8 9 9 9 8 9 10 8 8 9 8 9 10 9 10 12 10 10 8 10 13 13 12 13 14 15 15
2 1 2 1 2 2 2 2 3 2 3 3 3 4 6 6 7 7 8 9 9 8 9 9 9 9 10 9 10 9 10 10 10 11 11 9 8 9 11 11 11 13 14 15 16
2 2 2 2 1 2 2 2 1 1 2 3 4 3 4 6 7 8 9 9 9 9 8 8 9 10 10 10 10 10 9 9 10 10 10 8 8 9 11 11 12 13 14 15 16
2 2 2 2 2 2 2 1 1 1 2 3 3 3 4 6 6 7 8 9 9 9 9 7 9 10 11 10 10 10 10 9 9 9 8 6 8 9 10 11 11 13 13 13 13
3 2 2 2 2 2 2 2 2 1 1 3 4 4 5 6 6 8 9 9 9 9 9 9 9 10 9 9 10 9 10 9 9 8 7 7 7 7 9 8 9 10 11 11 13
3 3 3 2 2 2 2 2 2 1 -1 4 4 4 6 8 6 8 9 9 9 8 8 7 8 9 9 9 8 8 9 8 7 6 6 7 5 8 8 10 10 8 10 11 11
3 3 3 2 2 1 2 2 2 -1 3 4 5 5 6 7 8 8 8 9 9 8 8 8 9 9 8 8 9 7 7 5 4 4 2 6 6 8 9 9 8 8 9 11 11
3 3 3 3 2 2 2 2 1 1 2 4 4 6 7 7 8 8 7 8 7 6 6 6 6 9 8 7 8 7 7 4 4 2 5 5 5 7 8 8 9 8 9 10 11
3 3 3 3 2 2 1 0 1 4 2 4 7 8 7 7 8 6 7 7 7 6 6 6 7 8 8 8 7 7 7 4 7 5 5 5 5 9 7 9 9 9 10 11 11
4 3 3 2 2 2 2 3 3 3 3 6 7 6 6 7 7 6 7 7 7 7 7 6 6 8 8 8 8 6 4 5 3 2 1 4 5 7 9 8 9 9 10 10 10
4 5 4 3 2 2 3 5 5 4 7 6 6 6 6 6 6 6 7 8 7 7 7 6 5 7 8 8 7 7 5 4 -1 3 5 6 5 7 9 9 7 8 8 10 10
5 5 5 5 4 4 4 4 5 6 7 7 6 5 5 6 6 5 7 7 8 7 7 6 6 6 7 7 6 6 5 3 3 2 4 5 8 5 8 8 7 7 9 9 9
6 1 6 6 3 2 4 5 5 6 7 7 6 6 6 6 7 7 7 7 8 8 7 6 4 5 7 6 6 6 5 4 1 2 1 2 5 7 7 8 7 8 10 8 7
5 5 7 6 3 1 3 6 5 6 7 8 8 8 7 7 7 7 7 7 8 8 7 7 3 1 5 5 5 5 5 4 3 1 -1 1 6 7 6 6 9 9 9 7 6
5 0 5 6 3 3 4 5 6 8 7 7 7 7 7 7 6 6 7 6 7 8 8 7 4 3 3 5 3 2 4 4 3 0 2 3 4 8 8 7 9 9 7 6 5
3 1 1 2 2 2 4 5 6 6 7 7 7 8 7 7 7 6 6 7 7 8 7 6 2 -0 3 5 4 4 5 4 2 4 3 5 4 7 7 8 8 8 6 5 4
2 2 2 2 2 3 4 6 6 6 7 8 7 7 7 7 7 5 6 6 7 6 6 5 2 2 2 4 4 3 4 4 4 4 4 6 6 9 8 9 9 7 5 4 3
1 1 1 3 1 4 4 6 7 7 7 7 8 8 7 7 6 7 7 7 7 5 4 5 2 0 1 3 4 4 4 4 5 6 7 5 8 8 7 8 8 6 4 3 2
Height
1488 1485 1482 1479 1476 1473 1473 1470 1469 1469 1468 1465 1465 1466 1465 1467 1469 1469 1465 1468 1472 1476 1479 1484 1488 1492 1494 1496 1499 1501 1511 1515 1508 1511 1507 1503 1504 1505 1505 1504 1505 1505 1505 1504 1504
1483 1480 1477 1475 1471 1468 1467 1466 1464 1463 1464 1462 1461 1461 1462 1462 1464 1459 1461 1465 1470 1474 1477 1479 1485 1490 1493 1494 1497 1498 1506 1504 1498 1499 1501 1501 1503 1504 1504 1503 1502 1504 1504 1503 1503
1479 1475 1472 1468 1465 1463 1461 1460 1459 1458 1459 1458 1458 1457 1458 1459 1459 1448 1456 1459 1466 1471 1475 1479 1485 1489 1491 1492 1493 1494 1499 1496 1496 1496 1497 1499 1501 1502 1503 1503 1502 1503 1504 1503 1503
1475 1471 1468 1463 1460 1457 1455 1454 1453 1453 1454 1454 1453 1452 1453 1454 1453 1447 1447 1452 1461 1467 1473 1477 1482 1486 1489 1490 1490 1494 1493 1494 1495 1496 1497 1499 1500 1501 1502 1501 1502 1503 1505 1505 1506
1472 1468 1464 1459 1456 1453 1451 1450 1448 1448 1449 1449 1449 1449 1451 1448 1446 1447 1448 1450 1456 1463 1468 1473 1478 1483 1486 1487 1490 1492 1491 1492 1494 1495 1496 1497 1498 1499 1497 1498 1500 1501 1503 1505 1506
1468 1464 1459 1455 1451 1449 1448 1446 1445 1444 1444 1445 1444 1445 1446 1443 1445 1444 1448 1449 1450 1458 1465 1471 1475 1481 1484 1484 1488 1487 1491 1492 1492 1493 1494 1495 1495 1496 1493 1494 1496 1497 1499 1501 1503
1464 1460 1456 1451 1448 1446 1444 1442 1441 1440 1440 1441 1441 1441 1438 1439 1440 1442 1446 1448 1451 1456 1462 1469 1475 1479 1481 1483 1486 1488 1492 1491 1489 1491 1492 1492 1491 1490 1490 1492 1492 1493 1494 1496 1497
1459 1455 1451 1448 1446 1443 1440 1439 1437 1437 1437 1438 1439 1439 1436 1439 1441 1441 1444 1446 1451 1457 1463 1468 1474 1479 1480 1482 1485 1490 1493 1498 1488 1487 1489 1493 1490 1487 1487 1487 1486 1487 1487 1489 1491
1454 1450 1447 1444 1443 1440 1438 1436 1435 1434 1435 1436 1438 1439 1434 1436 1440 1442 1443 1444 1448 1457 1463 1470 1475 1478 1480 1484 1491 1491 1500 1497 1490 1486 1486 1489 1489 1483 1484 1485 1484 1482 1482 1482 1483
1451 1446 1441 1440 1439 1438 1436 1433 1430 1428 1431 1435 1437 1441 1434 1434 1437 1441 1441 1443 1448 1456 1464 1470 1474 1477 1480 1482 1490 1490 1492 1493 1493 1488 1487 1489 1490 1482 1481 1480 1480 1479 1477 1476 1476
1447 1444 1441 1438 1436 1435 1433 1430 1432 1432 1430 1431 1431 1430 1430 1435 1437 1442 1444 1445 1449 1454 1458 1463 1466 1467 1473 1479 1481 1485 1490 1491 1490 1487 1488 1488 1488 1482 1477 1475 1475 1474 1472 1471 1469
1442 1437 1435 1434 1433 1432 1431 1431 1431 1433 1432 1430 1431 1431 1432 1435 1438 1442 1444 1446 1448 1451 1455 1460 1464 1465 1472 1477 1481 1483 1490 1491 1489 1489 1491 1489 1485 1478 1469 1466 1466 1465 1465 1464 1464
1437 1431 1426 1427 1429 1429 1429 1429 1428 1430 1432 1432 1433 1434 1433 1437 1438 1442 1445 1447 1450 1453 1457 1461 1465 1466 1469 1476 1482 1484 1486 1489 1493 1492 1494 1493 1480 1472 1465 1463 1463 1462 1461 1461 1461
1436 1429 1423 1422 1428 1427 1427 1428 1428 1430 1436 1435 1434 1434 1434 1435 1443 1445 1448 1450 1453 1455 1458 1463 1465 1467 1472 1478 1480 1486 1485 1488 1493 1495 1502 1496 1499 1479 1467 1466 1463 1462 1459 1457 1461
1437 1431 1425 1423 1426 1427 1429 1428 1429 1431 1459 1437 1435 1433 1434 1438 1441 1447 1450 1451 1453 1458 1464 1471 1468 1470 1474 1478 1483 1486 1487 1492 1496 1503 1505 1501 1513 1476 1469 1466 1464 1464 1463 1461 1461
1439 1435 1431 1429 1428 1429 1429 1430 1432 1441 1439 1436 1434 1436 1437 1440 1444 1449 1452 1453 1455 1461 1467 1471 1470 1472 1474 1480 1482 1486 1492 1500 1505 1509 1529 1507 1506 1479 1471 1472 1468 1466 1463 1461 1459
1443 1438 1435 1433 1433 1432 1433 1433 1436 1441 1444 1440 1438 1436 1437 1440 1445 1451 1454 1456 1459 1470 1472 1478 1478 1474 1476 1484 1487 1488 1494 1517 1519 1529 1515 1508 1506 1479 1471 1469 1467 1466 1464 1462 1460
1447 1444 1441 1438 1437 1436 1435 1435 1443 1438 1442 1436 1434 1435 1439 1444 1451 1457 1457 1459 1462 1466 1475 1481 1483 1478 1478 1481 1485 1489 1492 1511 1503 1515 1511 1510 1501 1474 1468 1466 1466 1465 1463 1460 1458
1447 1447 1444 1442 1439 1437 1436 1435 1440 1441 1442 1435 1439 1444 1448 1450 1451 1458 1459 1462 1461 1462 1470 1480 1485 1479 1479 1480 1484 1493 1505 1500 1517 1524 1534 1506 1489 1471 1467 1468 1467 1465 1462 1460 1458
1448 1446 1444 1441 1438 1436 1436 1431 1437 1439 1436 1439 1444 1449 1453 1455 1458 1461 1460 1461 1463 1464 1466 1475 1487 1484 1482 1481 1485 1485 1493 1508 1526 1525 1512 1499 1498 1481 1468 1467 1466 1462 1460 1458 1455
1449 1447 1445 1442 1440 1438 1441 1442 1440 1438 1437 1440 1446 1449 1454 1456 1458 1464 1463 1463 1461 1464 1465 1471 1478 1486 1482 1484 1488 1492 1496 1503 1507 1518 1515 1507 1480 1471 1468 1466 1467 1465 1462 1459 1455
1450 1451 1447 1443 1444 1447 1447 1445 1443 1441 1438 1439 1442 1446 1451 1454 1456 1458 1461 1461 1461 1463 1467 1471 1481 1487 1484 1486 1486 1486 1491 1496 1517 1521 1522 1521 1494 1465 1465 1464 1464 1461 1458 1457 1456
1453 1451 1449 1445 1452 1453 1447 1445 1444 1442 1442 1441 1442 1443 1447 1452 1458 1458 1459 1461 1461 1462 1466 1469 1486 1506 1491 1490 1488 1488 1490 1494 1501 1510 1530 1523 1486 1465 1464 1462 1459 1457 1455 1454 1451
1455 1457 1452 1450 1453 1454 1452 1449 1447 1444 1444 1443 1445 1444 1447 1452 1455 1460 1460 1461 1460 1462 1464 1466 1482 1490 1497 1487 1490 1497 1489 1492 1497 1517 1506 1499 1483 1462 1460 1460 1455 1454 1452 1449 1445
1457 1460 1461 1460 1455 1456 1454 1451 1448 1449 1445 1445 1446 1447 1448 1455 1456 1459 1460 1461 1463 1463 1466 1470 1490 1496 1486 1483 1487 1486 1484 1490 1495 1491 1499 1484 1480 1462 1459 1457 1453 1450 1447 1444 1442
1461 1462 1461 1459 1456 1455 1452 1452 1450 1449 1448 1447 1449 1449 1449 1452 1454 1460 1459 1461 1462 1467 1468 1473 1490 1492 1491 1482 1485 1488 1483 1484 1485 1485 1485 1478 1473 1457 1454 1452 1448 1446 1445 1445 1442
1463 1463 1462 1458 1456 1454 1456 1452 1450 1449 1448 1446 1447 1450 1453 1455 1453 1453 1456 1457 1458 1465 1471 1474 1487 1496 1500 1487 1484 1482 1473 1473 1474 1471 1469 1478 1459 1452 1451 1449 1447 1446 1446 1444 1442
Wind_Speed
24 25 26 28 25 25 24 23 20 20 23 22 21 23 16 20 17 20 28 23 24 7 13 24 22 17 13 9 8 8 3 5 7 7 4 2 2 2 2 8 6 4 8 8 9
25 27 27 27 27 26 23 23 20 20 19 20 21 27 12 9 21 31 30 24 18 17 12 28 26 18 9 9 8 6 4 9 6 6 4 2 2 3 3 8 4 7 4 12 12
26 26 28 26 25 24 25 23 21 24 19 20 20 23 24 15 21 32 23 27 22 22 14 25 24 19 9 8 8 6 5 5 6 7 5 3 2 1 1 4 4 4 7 5 18
26 24 25 25 24 23 22 22 20 20 19 21 19 19 25 13 7 1 7 23 23 28 21 23 23 16 6 6 9 3 6 8 5 8 3 3 2 2 7 10 5 5 8 2 14
26 25 25 24 23 22 21 21 19 19 18 19 17 9 12 11 17 5 4 10 30 32 28 25 23 16 7 8 6 4 2 13 10 8 6 5 7 8 11 13 13 15 14 8 6
27 25 24 23 22 20 18 18 17 16 16 15 15 11 17 9 22 23 4 7 34 35 32 26 17 13 13 7 6 7 10 7 5 7 6 4 7 9 3 6 13 19 20 19 15
25 24 22 23 21 18 16 16 16 14 13 12 9 16 11 13 10 17 16 13 31 35 34 28 15 12 8 4 13 6 3 3 7 6 5 1 7 7 21 23 27 28 27 25 24
26 24 23 21 21 17 16 17 13 11 10 9 9 9 7 20 11 9 8 15 30 28 31 27 14 15 3 5 4 6 2 1 3 8 6 7 6 5 12 14 23 26 29 31 33
27 24 24 20 17 17 14 15 12 11 8 8 7 4 4 11 16 11 11 22 30 23 26 23 18 9 4 5 4 2 4 4 5 8 3 8 2 3 7 7 16 25 29 28 28
26 25 17 15 14 13 13 18 16 13 9 6 4 2 8 5 17 13 11 21 23 21 19 19 12 4 3 4 6 6 2 2 4 1 2 5 6 10 19 18 18 22 26 26 27
24 23 21 14 11 12 18 13 6 4 8 5 8 4 7 7 17 15 15 20 15 17 9 19 5 14 13 5 3 6 4 3 3 1 2 6 5 12 19 16 21 26 29 33 37
30 29 23 15 10 13 11 8 10 4 2 9 11 16 3 9 8 14 16 6 6 4 5 7 8 8 11 8 6 5 5 2 3 1 2 6 11 14 15 12 22 25 29 35 37
28 26 20 15 11 12 4 9 3 9 1 3 3 4 9 15 8 11 14 6 3 3 4 7 4 9 12 8 7 3 3 2 3 3 1 7 7 4 4 5 8 16 20 22 25
28 25 17 5 5 1 4 4 9 9 3 2 2 4 6 15 5 14 13 4 2 4 4 4 3 8 10 2 2 5 1 3 3 2 3 5 5 7 5 8 4 15 23 11 11
24 20 16 4 3 2 1 8 8 2 6 3 2 6 10 3 19 9 14 1 5 7 3 2 5 12 11 6 3 3 3 5 3 3 3 2 2 8 3 5 5 10 20 26 28
23 17 10 14 11 8 8 8 5 3 5 2 3 1 6 6 4 9 4 5 9 6 9 3 3 2 3 5 2 7 5 5 4 2 2 2 3 5 2 3 7 6 16 26 31
21 18 9 10 13 12 7 1 3 5 2 4 3 7 8 9 5 4 1 4 4 4 3 4 4 3 5 7 4 3 5 2 4 3 4 2 0 8 5 3 3 3 15 27 30
15 11 13 12 11 4 9 3 8 2 1 2 7 11 6 5 6 3 2 4 5 4 3 4 2 3 1 3 6 2 4 4 4 1 3 2 5 4 6 3 4 9 26 29 30
10 10 11 8 7 9 2 5 2 2 1 5 10 6 5 6 5 3 3 2 2 2 4 4 2 3 2 2 3 4 2 2 6 2 3 3 7 7 1 5 5 16 25 26 29
10 9 16 16 15 8 1 6 3 3 6 5 5 1 3 3 3 3 1 1 4 2 2 4 5 2 2 5 7 3 6 3 3 1 2 4 5 4 3 3 7 15 24 28 32
12 3 18 16 10 6 3 3 3 5 3 4 3 4 4 4 3 3 4 1 1 2 4 4 3 1 3 1 5 2 2 5 4 2 3 2 5 6 6 3 6 10 22 19 30
9 3 14 12 6 2 3 3 4 5 4 4 5 4 4 4 3 3 5 2 6 6 3 1 4 3 2 0 1 2 4 4 4 3 2 2 6 3 6 4 7 15 16 18 23
8 4 9 11 3 4 5 2 2 5 4 2 2 2 2 3 4 2 3 2 9 3 5 4 2 3 3 4 3 2 3 4 4 3 5 4 5 1 3 9 19 17 17 22 21
6 3 4 7 5 2 4 4 4 6 3 4 3 4 4 4 5 4 2 4 7 3 8 5 3 4 5 3 3 2 4 5 6 3 3 6 7 12 12 10 18 22 16 19 22
6 2 2 3 3 4 3 0 3 4 4 6 4 2 4 3 2 2 3 2 5 10 4 3 3 2 3 3 3 4 4 8 7 6 6 4 6 13 14 15 20 18 17 20 21
3 3 3 4 7 4 3 4 3 1 1 2 5 3 5 3 4 6 5 2 3 3 3 2 3 2 3 2 4 5 8 8 10 6 9 14 20 20 27 22 14 14 15 17 19
4 3 3 4 4 2 3 3 4 3 5 6 4 4 5 1 3 4 1 6 7 7 3 4 5 2 3 4 5 5 8 12 6 5 10 8 13 15 10 7 9 11 11 16 14
Wind_Direction
317 309 307 306 303 294 291 296 290 295 297 292 270 252 314 235 246 236 234 232 224 187 178 187 190 188 180 180 177 166 117 188 196 161 212 145 155 135 269 281 316 254 260 252 246
316 314 314 308 301 298 294 284 287 290 296 293 282 247 276 255 239 245 242 241 221 187 207 194 193 186 181 184 183 170 169 203 190 180 195 121 154 322 342 336 313 304 285 258 227
319 317 313 307 306 297 293 289 285 285 288 293 281 270 238 313 228 254 249 239 215 181 192 195 194 184 184 178 181 177 202 179 227 184 168 140 296 146 359 303 264 310 355 240 197
320 317 311 309 309 300 292 288 281 278 275 288 288 285 255 261 197 176 234 217 202 180 181 178 196 182 161 188 186 153 204 188 228 211 252 176 221 268 234 244 277 300 337 274 214
322 322 316 317 313 304 300 292 283 278 278 286 274 270 255 196 211 121 160 202 181 181 191 180 172 177 168 172 149 179 194 211 229 234 267 241 233 231 249 262 262 268 269 272 264
323 323 322 322 319 309 302 295 290 285 282 273 271 251 237 203 225 225 215 203 180 182 191 189 180 174 177 193 169 199 209 234 250 248 260 230 242 233 249 246 250 261 261 262 256
321 325 322 321 318 314 303 299 297 288 280 265 264 247 264 222 240 225 234 214 179 187 190 191 169 173 156 129 198 128 112 270 255 221 241 4 266 224 252 257 263 262 267 267 265
325 325 324 318 319 314 310 305 296 286 270 270 261 258 269 213 240 199 203 199 184 192 197 185 176 187 171 128 88 133 89 199 276 174 227 158 251 290 278 257 262 267 266 265 264
325 331 328 322 314 317 322 313 308 297 271 257 273 236 257 205 212 220 200 188 176 187 190 186 183 190 150 122 87 156 187 177 313 197 158 191 305 254 312 286 272 271 272 272 270
334 326 325 321 317 324 323 322 321 291 242 222 230 187 233 205 197 205 183 170 163 162 154 179 183 139 119 179 189 156 172 169 205 292 154 263 274 281 288 288 275 275 279 278 278
323 317 321 313 312 322 325 334 16 31 164 191 215 222 157 181 171 183 153 141 161 168 180 171 172 189 180 179 150 126 137 160 233 359 307 256 262 280 281 275 272 270 271 273 274
325 314 305 295 295 316 333 336 317 237 341 242 247 238 359 174 162 169 158 127 126 180 100 138 192 159 146 146 120 123 131 195 289 31 318 309 291 262 264 256 252 262 266 271 278
338 332 308 273 278 307 305 328 260 169 93 34 170 192 248 159 200 166 165 123 105 126 155 130 127 121 157 161 180 135 145 168 226 338 63 321 283 303 290 277 313 293 284 280 283
353 350 340 281 276 230 322 345 155 158 107 24 125 214 190 118 141 168 173 121 96 141 89 49 137 136 133 170 102 174 146 117 82 49 268 23 294 298 317 326 341 39 24 2 323
354 7 21 73 107 48 316 146 164 252 79 199 221 153 134 132 138 171 174 312 116 112 139 67 154 155 159 169 141 129 109 106 92 88 32 358 97 269 359 10 350 12 38 52 43
2 15 42 70 74 87 103 140 166 40 80 187 103 138 129 154 93 131 156 65 90 74 69 63 40 77 85 69 156 140 80 56 61 91 25 280 171 288 38 23 305 0 35 27 19
4 29 45 80 80 100 101 352 20 61 288 102 147 151 124 119 96 73 360 114 99 119 87 47 353 6 98 84 16 78 87 335 356 21 218 250 289 252 304 291 277 340 14 4 7
12 28 52 76 86 59 330 13 57 353 307 249 137 89 89 75 99 76 166 93 63 107 127 140 148 174 74 140 169 120 141 158 217 182 273 343 237 245 259 255 87 14 357 359 357
331 346 22 17 2 346 290 40 30 350 267 127 79 66 55 42 80 105 46 102 130 92 110 111 35 340 37 119 117 183 107 147 103 52 48 245 286 309 1 65 25 345 352 353 350
345 345 2 352 342 344 252 77 84 181 49 50 83 85 104 86 96 83 53 111 112 80 144 180 107 343 136 102 40 113 146 71 12 118 280 279 283 241 328 31 355 349 338 342 342
354 10 3 0 358 54 49 66 349 6 80 98 130 87 104 127 123 149 160 341 101 126 92 124 95 33 96 133 162 110 137 56 108 99 157 299 263 206 212 157 350 305 328 334 333
1 21 355 14 46 18 46 343 348 348 14 77 93 95 123 138 108 131 162 142 181 168 86 39 123 135 109 50 353 131 159 133 119 235 61 116 276 287 243 221 302 310 323 333 331
346 312 5 20 54 350 319 8 330 7 9 82 103 100 142 119 110 105 129 102 164 139 149 180 40 68 360 359 9 173 183 120 105 79 202 144 261 224 275 295 316 320 326 330 333
354 8 9 51 53 352 1 355 6 19 31 45 104 69 86 60 34 148 118 9 167 122 107 92 94 142 184 203 140 177 179 164 130 132 189 235 287 292 303 300 315 318 317 331 341
22 59 357 336 344 347 304 291 24 7 4 26 39 120 126 103 67 81 77 98 61 129 75 93 107 87 255 230 170 204 187 180 193 183 185 252 237 270 293 293 294 303 328 340 342
45 6 347 282 296 311 354 351 26 196 355 18 100 60 68 125 175 187 137 149 167 48 97 45 125 95 311 4 209 248 227 205 215 226 258 263 281 279 275 284 287 333 335 333 335
34 8 347 302 334 37 337 324 340 353 40 64 108 92 71 11 228 203 93 134 153 141 129 110 131 92 280 338 305 276 219 199 183 200 213 223 242 268 289 296 314 327 325 330 332